TRANSPORTER-15 AA (66690 NORAD) Tracking and Keplerian Element Data

This shows tracking and keplerian element data for the satellite.

Feedback or suggestion? Click here.




ElementValue
Catalog66690
NameTRANSPORTER-15 AA
Epoch Orbit323
Epoch Day354.06345821
Epoch Year2025
RAAN65.6855
Inclination97.4408
Eccentricity0.0003269
Argument of Perigee265.4105
Mean Anonmoly94.6755
Mean Motion15.17032749
Decay Rate7.285E-05
L11 66690U 25276AA 25354.06345821 .00007285 00000+0 37156-3 0 9993
L22 66690 97.4408 65.6855 0003269 265.4105 94.6755 15.17032749 3232



Live tracking and technical data element details for TRANSPORTER-15 AA (NORAD 66690). TRANSPORTER-15 AA can be tracked NOW for your location showing map with azimuth and elevation plus other details from your city location.







IsCatalogInMostPopularTable: catalog: 66690, numindb: 14
Update: records affected: 1



GetName: 66690 TRANSPORTER-15 AA

Hit Count: updated at: Tue, 21 Apr 2026 19:10:53 GMT